Location: Cudham
(51.3000°N, 0.0667°E)
Time: 20:26:48
(UTC+00:00)

PSLV R/B - Pass Details

Date: 19 May 2025
Orbit: 401 x 431 km, 97.7° (Epoch: 18 June)

Event Time Altitude Azimuth Distance (km) Brightness Sun altitude
Exits shadow 20:52:21 11° 142° (SE) 1,424 5.3 -8.2°
Maximum altitude 20:55:14 43° 70° (ENE) 604 3.9 -8.5°
Drops below altitude 10° 20:58:21 10° 358° (N) 1,531 6.9 -8.8°
Sets 21:00:26 0° 352° (N) 2,410 8.2 -9.0°
